STATLINK-35318

基本信息
目录编号:
66146
目录名称:
STARLINK-35318
国际标识:
2025-240A
轨道中心:
EARTH
卫星名称:
STATLINK-35318
卫星全名:
STATLINK-35318
卫星状态:
在轨 (已飞行45 天)
发射日期:
2025-10-25 UTC
国别 :
美国 (US)
星等 :
--
轨道信息
数据来源 国际轨道数据
星历时间: 2025-12-09T10:13:44+0800
13小时前
查看轨道信息
半长轴: 6829.425km
偏心率: 0.0003234
轨道倾角: 53.158°
近地点辐角 60.279°
升交点赤经 123.911°
平近点角 299.854°
近地点: 449.081km
远地点: 453.499km
周期: 93.613分钟
每日圈数: 15.382489
详细信息
使用方式:
暂无
2D轨道图
3D轨道图
轨道高度分析图
轨道倾角分析图
轨道综合分析图
查看轨道综合分析图